NOAA 16 DEB, 41289

Orbit data source: Space-Track

NOAA 16 DEB, 41289 is space debris in SSO originally from a launch on Thu, 21 Sep 2000 UTC launched from the Air Force Western Test Range (AFWTR). Debris objects in space refer to the collection of defunct objects orbiting the Earth. Examples of debris include non-operational satellites, rocket bodies, and fragments generated from explosions, collisions, or faulty payload assembly.

Loading next visibility...
Identifier
41289, 2000-055GR
Orbit
SSO
Country
Flag of USUS
Related business
Manufacturer
Unknown
Mission
Spacecraft
Bus & Motor
Unknown
Mass
Unknown
Launch date (UTC)
2000-09-21 (26 years ago)
Launch vehicle
Unknown
Launch site
Air Force Western Test Range (AFWTR)
Object type
Payload
Rocket body
Debris
Shape & HBR
Unknown shape, 0.1 m
Radar Cross Section
Small (<0.1 m²)

Expand to show TLE details & history
Last TLE update: 9 hours ago

TLE from 9 hours ago
0 NOAA 16 DEB
1 41289U 00055GR  26144.99993887  .00002132  00000-0  10507-2 0  9996
2 41289  98.6434 163.5525 0031305 319.2582  40.6253 14.18312419535433
Epoch: 2026-05-24T23:59Z
TLE epoch observation values (Epoch: 2026-05-24T23:59:54.718Z)
Latitude
0.00001°
Longitude
-79.01951°
Altitude
816.878 km
Speed
7.454 km/s
True Right ascension
10h 54m 12s
True Declination
0° 00' 00"
Sunlit
Object was in daylight at epoch
Visualization orbit readout
Latitude
Unknown
Longitude
Unknown
Altitude
Unknown
Speed
Unknown
Apparent Right ascension
Unknown
Apparent Declination
Unknown
Sunlit
N/A
Visualization observer readout
Local Sidereal Time
17:43:02
Azimuth
Unknown
Elevation
Unknown
Doppler factor
Unknown
Orbital elements
Apogee altitude
850.783 km
Perigee altitude
805.664 km
Semi-major axis
7,206.36 km
Eccentricity
0.00313
Inclination
98.6434°
RAAN
163.5525°
Arg. of periapsis
319.2582°
True anomaly
40.85957°
Mean anomaly
40.6253°
Eccentric anomaly
40.74236°
Mean motion
3.54788 °/min
Orbital period
101.47 mins
BSTAR
0.0010507
Loading maneuver chart data...
Computing Atmospheric mass density...
Loading historical data...
Loading historical data...
Loading historical data...
Loading historical data...
Loading historical data...
Loading historical data...
Loading historical data...

Documentation

Showing up to 5 results
|